STARLINK-36604

Last updated on Sun Apr 12 2026 00:02:06 GMT+0000 (Coordinated Universal Time)

1 68142U 26049A 26101.49669580 .00229177 00000+0 14937-2 0 9992 2 68142 97.2853 122.3766 0001146 99.8490 260.2905 15.75233441 4581
UTC large
Height (km)
Speed (km/s)
/
Latitude / Longitude
Inclination (degrees)
Orbital Period (minutes)
Azimuth
Elevation
Range (km)
Doppler Factor

Next 0 passes for location: London (51.5072 / 0.1276)

Sorry there are no passes over London.
STARLINK-36604